TimeCDT,TemperatureF,Dew PointF,Humidity,Sea Level PressureIn,VisibilityMPH,Wind Direction,Wind SpeedMPH,Gust SpeedMPH,PrecipitationIn,Events,Conditions,WindDirDegrees,DateUTC
12:55 AM,47.7,41.0,78,29.96,10.0,North,3.5,-,N/A,,Clear,360,2012-11-02 05:55:00
1:55 AM,45.5,40.5,83,29.97,10.0,North,3.5,-,N/A,,Clear,360,2012-11-02 06:55:00
2:55 AM,41.4,38.7,90,29.98,10.0,NNE,6.9,-,N/A,,Clear,30,2012-11-02 07:55:00
3:55 AM,44.4,39.2,82,29.97,10.0,ENE,6.9,-,N/A,,Clear,60,2012-11-02 08:55:00
4:55 AM,41.2,36.7,84,29.98,10.0,NE,4.6,-,N/A,,Clear,40,2012-11-02 09:55:00
5:55 AM,40.5,36.0,84,30.00,10.0,ENE,3.5,-,N/A,,Clear,70,2012-11-02 10:55:00
6:55 AM,39.9,35.4,84,30.01,10.0,Calm,Calm,-,N/A,,Clear,0,2012-11-02 11:55:00
7:55 AM,38.7,34.9,86,30.02,10.0,ENE,4.6,-,N/A,,Scattered Clouds,70,2012-11-02 12:55:00
8:55 AM,41.9,36.7,82,30.03,10.0,East,5.8,-,N/A,,Scattered Clouds,100,2012-11-02 13:55:00
9:55 AM,47.3,36.0,65,30.01,10.0,ESE,11.5,-,N/A,,Scattered Clouds,110,2012-11-02 14:55:00
10:55 AM,51.1,35.6,55,30.01,10.0,ESE,10.4,-,N/A,,Scattered Clouds,120,2012-11-02 15:55:00
11:55 AM,55.0,36.7,50,30.00,10.0,East,8.1,-,N/A,,Clear,90,2012-11-02 16:55:00
12:55 PM,57.9,35.8,44,29.98,10.0,East,11.5,-,N/A,,Clear,100,2012-11-02 17:55:00
1:55 PM,60.4,36.9,42,29.95,10.0,East,9.2,-,N/A,,Clear,100,2012-11-02 18:55:00
2:55 PM,62.2,36.9,39,29.92,10.0,East,9.2,-,N/A,,Clear,90,2012-11-02 19:55:00
3:55 PM,61.7,35.6,38,29.90,10.0,East,13.8,-,N/A,,Clear,100,2012-11-02 20:55:00
4:55 PM,59.0,36.9,44,29.90,10.0,East,11.5,-,N/A,,Clear,100,2012-11-02 21:55:00
5:55 PM,56.1,37.6,50,29.90,10.0,East,6.9,-,N/A,,Partly Cloudy,90,2012-11-02 22:55:00
6:55 PM,53.2,35.6,51,29.91,10.0,East,8.1,-,N/A,,Partly Cloudy,90,2012-11-02 23:55:00
7:55 PM,52.7,33.8,49,29.91,10.0,East,6.9,-,N/A,,Clear,90,2012-11-03 00:55:00
8:55 PM,51.1,33.6,51,29.91,10.0,ENE,6.9,-,N/A,,Partly Cloudy,70,2012-11-03 01:55:00
9:55 PM,49.5,34.2,56,29.90,10.0,East,5.8,-,N/A,,Clear,80,2012-11-03 02:55:00
10:55 PM,48.6,34.3,58,29.91,10.0,NE,6.9,-,N/A,,Clear,50,2012-11-03 03:55:00
11:55 PM,47.7,35.1,62,29.90,10.0,ENE,6.9,-,N/A,,Clear,60,2012-11-03 04:55:00